• In Austria
  • List of Countries
  • For 7 days
  • Water Temperature
  • Satellite Maps
  • Weather Map
  • News
  • Weather Widgets
  • user-avatar
    Login

    Hourly Weather Albany

    Today, 21 May, Monday

    Time Temperature Precipitation Wind Pressure Humidity
    00:00 +14°C° 0 mm 3 mps 767 mmHg 52%
    01:00 +13°C° 0 mm 3 mps 767 mmHg 52%
    02:00 +13°C° 0 mm 3 mps 767 mmHg 55%
    03:00 +13°C° 0 mm 3 mps 767 mmHg 55%
    04:00 +13°C° 0 mm 3 mps 767 mmHg 56%
    05:00 +13°C° 0 mm 3 mps 767 mmHg 56%
    06:00 +13°C° 0 mm 3 mps 767 mmHg 56%
    07:00 +14°C° 0 mm 4 mps 767 mmHg 55%
    08:00 +15°C° 0 mm 4 mps 768 mmHg 55%
    09:00 +18°C° 0 mm 4 mps 767 mmHg 50%
    10:00 +20°C° 0 mm 4 mps 767 mmHg 45%
    11:00 +22°C° 0 mm 4 mps 767 mmHg 40%
    12:00 +23°C° 0 mm 4 mps 766 mmHg 38%
    13:00 +25°C° 0 mm 3 mps 766 mmHg 36%
    14:00 +26°C° 0 mm 3 mps 765 mmHg 32%
    15:00 +25°C° 0 mm 3 mps 765 mmHg 36%
    16:00 +22°C° 0 mm 3 mps 765 mmHg 40%
    17:00 +21°C° 0 mm 3 mps 765 mmHg 44%
    18:00 +19°C° 0 mm 3 mps 765 mmHg 46%
    19:00 +18°C° 0 mm 3 mps 765 mmHg 48%
    20:00 +17°C° 0 mm 4 mps 765 mmHg 51%
    21:00 +15°C° 0 mm 4 mps 765 mmHg 51%
    22:00 +15°C° 0 mm 4 mps 765 mmHg 51%
    23:00 +15°C° 0 mm 4 mps 765 mmHg 51%

    Tomorrow, 22 May, Tuesday

    Time Temperature Precipitation Wind Pressure Humidity
    00:00 +14°C° 0 mm 4 mps 765 mmHg 51%
    01:00 +14°C° 0 mm 4 mps 765 mmHg 51%
    02:00 +14°C° 0 mm 4 mps 765 mmHg 51%
    03:00 +14°C° 0 mm 4 mps 765 mmHg 51%
    04:00 +14°C° 0 mm 4 mps 765 mmHg 50%
    05:00 +13°C° 0 mm 4 mps 765 mmHg 50%
    06:00 +14°C° 0 mm 5 mps 765 mmHg 50%
    07:00 +14°C° 0 mm 5 mps 765 mmHg 49%
    08:00 +14°C° 0 mm 5 mps 765 mmHg 48%
    09:00 +17°C° 0 mm 5 mps 764 mmHg 44%
    10:00 +20°C° 0 mm 5 mps 764 mmHg 39%
    11:00 +23°C° 0 mm 5 mps 764 mmHg 34%
    12:00 +25°C° 0 mm 4 mps 763 mmHg 32%
    13:00 +26°C° 0 mm 3 mps 763 mmHg 30%
    14:00 +27°C° 0 mm 2 mps 762 mmHg 28%
    15:00 +25°C° 0 mm 2 mps 762 mmHg 32%
    16:00 +23°C° 0 mm 2 mps 762 mmHg 35%
    17:00 +21°C° 0 mm 2 mps 762 mmHg 38%
    18:00 +20°C° 0 mm 2 mps 762 mmHg 40%
    19:00 +19°C° 0 mm 3 mps 762 mmHg 41%
    20:00 +18°C° 0 mm 3 mps 762 mmHg 42%
    21:00 +17°C° 0 mm 3 mps 762 mmHg 43%
    22:00 +17°C° 0 mm 3 mps 762 mmHg 43%
    23:00 +17°C° 0 mm 3 mps 762 mmHg 43%

    Day after tomorrow, 23 May, Wednesday

    Time Temperature Precipitation Wind Pressure Humidity
    00:00 +15°C° 0 mm 4 mps 762 mmHg 42%
    01:00 +15°C° 0 mm 4 mps 762 mmHg 41%
    02:00 +15°C° 0 mm 4 mps 762 mmHg 41%
    03:00 +15°C° 0 mm 4 mps 762 mmHg 40%
    04:00 +15°C° 0 mm 4 mps 762 mmHg 39%
    05:00 +15°C° 0 mm 4 mps 762 mmHg 39%
    06:00 +15°C° 0 mm 5 mps 762 mmHg 38%
    07:00 +15°C° 0 mm 5 mps 762 mmHg 37%
    08:00 +16°C° 0 mm 5 mps 762 mmHg 36%
    09:00 +19°C° 0 mm 5 mps 762 mmHg 33%
    10:00 +22°C° 0 mm 5 mps 761 mmHg 30%
    11:00 +25°C° 0 mm 5 mps 761 mmHg 27%
    12:00 +26°C° 0 mm 5 mps 760 mmHg 25%
    13:00 +27°C° 0 mm 5 mps 760 mmHg 24%
    14:00 +28°C° 0 mm 4 mps 759 mmHg 22%
    15:00 +26°C° 0 mm 4 mps 759 mmHg 25%
    16:00 +25°C° 0 mm 3 mps 759 mmHg 27%
    17:00 +22°C° 0 mm 3 mps 759 mmHg 30%
    18:00 +21°C° 0 mm 3 mps 758 mmHg 31%
    19:00 +20°C° 0 mm 4 mps 758 mmHg 32%
    20:00 +19°C° 0 mm 4 mps 758 mmHg 33%
    21:00 +19°C° 0 mm 4 mps 758 mmHg 32%
    22:00 +19°C° 0 mm 5 mps 758 mmHg 32%
    23:00 +19°C° 0 mm 5 mps 757 mmHg 31%

    24 May, Thursday

    Time Temperature Precipitation Wind Pressure Humidity
    00:00 +19°C° 0 mm 5 mps 757 mmHg 31%
    01:00 +19°C° 0 mm 6 mps 756 mmHg 31%
    02:00 +19°C° 0 mm 6 mps 756 mmHg 31%
    03:00 +18°C° 0 mm 7 mps 755 mmHg 30%
    04:00 +20°C° 0 mm 7 mps 755 mmHg 30%
    05:00 +20°C° 0 mm 8 mps 754 mmHg 30%
    06:00 +20°C° 0 mm 8 mps 754 mmHg 30%
    07:00 +20°C° 0 mm 8 mps 754 mmHg 30%
    08:00 +20°C° 0 mm 8 mps 754 mmHg 30%
    09:00 +22°C° 0 mm 8 mps 753 mmHg 28%
    10:00 +24°C° 0 mm 9 mps 753 mmHg 26%
    11:00 +27°C° 0 mm 9 mps 752 mmHg 25%
    12:00 +27°C° 0 mm 9 mps 751 mmHg 24%
    13:00 +28°C° 0 mm 9 mps 749 mmHg 23%
    14:00 +29°C° 0 mm 9 mps 748 mmHg 23%
    15:00 +28°C° 0 mm 9 mps 747 mmHg 23%
    16:00 +27°C° 0 mm 8 mps 746 mmHg 23%
    17:00 +27°C° 0 mm 8 mps 746 mmHg 24%
    18:00 +26°C° 0.1 mm 9 mps 745 mmHg 26%
    19:00 +26°C° 0.1 mm 9 mps 744 mmHg 28%
    20:00 +24°C° 0.1 mm 10 mps 743 mmHg 31%
    21:00 +22°C° 2.4 mm 10 mps 743 mmHg 46%
    22:00 +19°C° 2.4 mm 11 mps 743 mmHg 62%
    23:00 +16°C° 2.4 mm 11 mps 743 mmHg 78%

    25 May, Friday

    Time Temperature Precipitation Wind Pressure Humidity
    00:00 +16°C° 0.7 mm 10 mps 742 mmHg 80%
    01:00 +16°C° 0.7 mm 9 mps 741 mmHg 82%
    02:00 +16°C° 0.7 mm 8 mps 741 mmHg 84%
    03:00 +15°C° 1.7 mm 9 mps 741 mmHg 84%
    04:00 +13°C° 1.7 mm 9 mps 742 mmHg 85%
    05:00 +12°C° 1.7 mm 9 mps 742 mmHg 85%
    06:00 +12°C° 0.5 mm 9 mps 743 mmHg 84%
    07:00 +11°C° 0.5 mm 9 mps 744 mmHg 82%
    08:00 +11°C° 0.5 mm 9 mps 745 mmHg 80%
    09:00 +12°C° 0.3 mm 10 mps 745 mmHg 73%
    10:00 +13°C° 0.3 mm 10 mps 746 mmHg 65%
    11:00 +14°C° 0.3 mm 11 mps 746 mmHg 58%
    12:00 +14°C° 0.2 mm 11 mps 746 mmHg 55%
    13:00 +14°C° 0.2 mm 11 mps 746 mmHg 53%
    14:00 +16°C° 0.2 mm 11 mps 746 mmHg 51%
    15:00 +14°C° 0.1 mm 10 mps 747 mmHg 51%
    16:00 +15°C° 0.1 mm 9 mps 747 mmHg 52%
    17:00 +14°C° 0.1 mm 7 mps 747 mmHg 52%
    18:00 +13°C° 0.3 mm 8 mps 747 mmHg 57%
    19:00 +12°C° 0.3 mm 8 mps 747 mmHg 62%
    20:00 +12°C° 0.3 mm 9 mps 747 mmHg 67%
    21:00 +12°C° 0.8 mm 9 mps 747 mmHg 70%
    22:00 +11°C° 0.8 mm 9 mps 747 mmHg 73%
    23:00 +11°C° 0.8 mm 8 mps 748 mmHg 76%

    26 May, Saturday

    Time Temperature Precipitation Wind Pressure Humidity
    00:00 +11°C° 0.2 mm 8 mps 748 mmHg 76%
    01:00 +11°C° 0.2 mm 8 mps 748 mmHg 76%
    02:00 +10°C° 0.2 mm 8 mps 748 mmHg 76%
    03:00 +11°C° 0.1 mm 8 mps 749 mmHg 77%
    04:00 +11°C° 0.1 mm 8 mps 749 mmHg 78%
    05:00 +11°C° 0.1 mm 8 mps 750 mmHg 79%
    06:00 +11°C° 0.3 mm 8 mps 751 mmHg 78%
    07:00 +12°C° 0.3 mm 9 mps 752 mmHg 77%
    08:00 +12°C° 0.3 mm 9 mps 752 mmHg 76%
    09:00 +13°C° 0.1 mm 9 mps 753 mmHg 73%
    10:00 +13°C° 0.1 mm 9 mps 753 mmHg 70%
    11:00 +15°C° 0.1 mm 9 mps 754 mmHg 67%
    12:00 +15°C° 0.1 mm 9 mps 753 mmHg 67%
    13:00 +15°C° 0.1 mm 9 mps 753 mmHg 68%
    14:00 +15°C° 0.1 mm 9 mps 753 mmHg 68%
    15:00 +16°C° 0.1 mm 9 mps 753 mmHg 68%
    16:00 +16°C° 0.1 mm 9 mps 753 mmHg 68%
    17:00 +16°C° 0.1 mm 9 mps 754 mmHg 68%
    18:00 +16°C° 0.1 mm 9 mps 754 mmHg 70%
    19:00 +15°C° 0.1 mm 9 mps 754 mmHg 72%
    20:00 +14°C° 0.1 mm 10 mps 755 mmHg 74%
    21:00 +14°C° 0.2 mm 10 mps 755 mmHg 76%
    22:00 +16°C° 0.2 mm 10 mps 755 mmHg 77%
    23:00 +16°C° 0.2 mm 9 mps 755 mmHg 79%
    Show more